Regional Weather Roundup
Issued by NWS

Home | Current Version | Previous Version | Text Only | Print | Product List | Glossary Off
Versions: 1 2 3 4 5 6 7 8 9 10 11 12 13 14 15 16 17 18 19 20 21 22 23 24 25 26 27 28 29 30 31 32 33 34 35 36 37 38 39 40 41 42 43 44 45 46 47 48 49 50

000
ASUS43 KMPX 191910
RWRMN
WEATHER ROUNDUP FOR MINNESOTA
NATIONAL WEATHER SERVICE TWIN CITIES/CHANHASSEN MN
200 PM CDT SAT APR 19 2014


NOTE: "FAIR" INDICATES FEW OR NO CLOUDS BELOW 12,000 FEET WITH NO
SIGNIFICANT WEATHER AND/OR OBSTRUCTIONS TO VISIBILITY. N/A MEANS
CURRENT SKY AND/OR WEATHER CONDITIONS ARE NOT AVAILABLE.

MNZ060>063-068>070-192000-
   Twin Cities Metro

CITY           SKY/WX    TMP DP  RH WIND       PRES   REMARKS
TWIN CITIES    PTSUNNY   61  41  47 S20G26    30.02F
ST PAUL        CLOUDY    60  40  47 S18G30    30.02F
CRYSTAL        PTSUNNY   62  40  44 SE13G21   30.00F
BLAINE         PTSUNNY   63  41  45 S16G28    30.01
EDEN PRAIRIE   PTSUNNY   66  42  41 S17       29.99F
LAKEVILLE      MOSUNNY   63  43  48 S16G24    30.02F
SOUTH ST PAUL  PTSUNNY   62  40  45 S15G22    30.02F
LAKE ELMO      CLOUDY    59  39  47 S18G24    30.03F
$$
MNZ001>005-007-008-013>017-022>024-027-028-192000-
   Northwest Minnesota

CITY           SKY/WX    TMP DP  RH WIND       PRES   REMARKS
BEMIDJI        PTSUNNY   62  29  28 W18G24    29.85S
HALLOCK        CLOUDY    55  39  54 W24G31    29.78S
ROSEAU         MOSUNNY   59  39  47 SW25G32   29.78S
WARROAD        SUNNY     57  41  54 SW22G28   29.77S
THIEF RVR FALL PTSUNNY   59  37  44 SW23G29   29.83S
CROOKSTON      SUNNY     63  36  36 W24G31    29.85R
FOSSTON        MOSUNNY   61  34  36 SW22G29   29.86S
DETROIT LAKES  MOSUNNY   61  32  33 W13G23    29.91R
MOORHEAD       PTSUNNY   61  25  25 SW16G24   29.90S
PARK RAPIDS    MOSUNNY   65  37  35 SW17G24   29.89S
$$
MNZ006-009>011-018-025>026-192000-
   North Central Minnesota

CITY           SKY/WX    TMP DP  RH WIND       PRES   REMARKS
BAUDETTE       PTSUNNY   60  36  40 SW17G28   29.79S
FLAG ISLAND    MOSUNNY   37  34  87 SE13      29.74F
INTL FALLS     PTSUNNY   46  34  62 S10G23    29.86F
WASKISH        MOSUNNY   55  37  50 SW15G21   29.84R
BIG FORK       MOSUNNY   54  39  58 S15       29.90S
LONGVILLE      PTSUNNY   59  43  55 S12G22    29.91S
GRAND RAPIDS   CLOUDY    50  36  57 S23       29.93S
CRANE LAKE     CLOUDY    37  37 100 SE8G16    29.96S
ORR            CLOUDY    41  30  65 S13G23    29.92R
COOK           CLOUDY    41  34  75 SE10G21   29.95S
$$
MNZ012-019>021-037-192000-
   Northeast Minnesota

CITY           SKY/WX    TMP DP  RH WIND       PRES   REMARKS
DULUTH         LGT RAIN  36  29  75 SE10      30.02F
ELY            CLOUDY    37  30  75 S12G17    29.98F
HIBBING        CLOUDY    47  33  58 S15G24    29.95F
EVELETH        CLOUDY    43  32  65 S10G20    29.98F
DULUTH HARBOR  CLOUDY    34  30  86 CALM      30.06F
TWO HARBORS    CLOUDY    36  28  75 E5        30.03F
SILVER BAY     CLOUDY    32  30  93 NE10G16   30.05F WCI  24
GRAND MARAIS     N/A     35  29  78 NE17G23   30.12F WCI  25
G MARAIS ARPRT CLOUDY    30  25  80 E12G18    30.08F WCI  21
$$
MNZ029>031-032-039>041-046>048-054>057-064-192000-
   West Central Minnesota

CITY           SKY/WX    TMP DP  RH WIND       PRES   REMARKS
FERGUS FALLS   MOSUNNY   66  23  19 W18       29.89S
WHEATON        MOSUNNY   70  34  26 W15       29.96R
MORRIS         PTSUNNY   63  34  34 W12       29.95R
ALEXANDRIA     PTSUNNY   60  44  55 W9        29.95S
ELBOW LAKE     FAIR      65  32  28 W14G21    29.94R
WADENA         MOSUNNY   61  39  44 W16G25    29.92R
GLENWOOD       CLOUDY    61  46  59 SW13      29.97R
APPLETON       CLOUDY    63  36  36 W13       29.97S
BENSON         CLOUDY    63  43  48 NW13G20   29.97R
ORTONVILLE     PTSUNNY   63  28  27 NW7       29.96S
MADISON        CLOUDY    64  39  39 NW5       29.97F
WILLMAR        FAIR      63  46  55 W17       30.00R
$$
MNZ033>034-036-042>043-049>051-058-059-192000-
   Central Minnesota

CITY           SKY/WX    TMP DP  RH WIND       PRES   REMARKS
ST CLOUD       LGT RAIN  52  41  66 SE6       29.98S
SAUK CENTRE    FAIR      59  47  62 SW13G18   29.96R
PAYNESVILLE    CLOUDY    58  47  65 SW9       29.98R
AITKIN         CLOUDY    55  37  50 S15G25    29.95S
PINE RIVER     PTSUNNY   57  45  62 SW9G22    29.95S
BRAINERD       PTSUNNY   63  41  44 S20G31    29.95F
STAPLES        PTSUNNY   61  45  55 S15       29.93S
LONG PRAIRIE   FAIR      57  46  67 S14G22    29.95S
LITTLE FALLS   CLOUDY    54  41  62 S12       29.97R
LITCHFIELD     CLOUDY    64  48  55 W9        29.98R
BUFFALO        CLOUDY    60  42  51 SE8       29.99S
MAPLE LAKE     CLOUDY    60  46  60 S7        29.99S
$$
MNZ037-044-045-052-053-192000-
   East Central Minnesota

CITY           SKY/WX    TMP DP  RH WIND       PRES   REMARKS
PRINCETON      LGT RAIN  52  43  71 SE9       29.99F
MORA           CLOUDY    45  34  65 CALM      30.02F
CAMBRIDGE      DRIZZLE   52  37  58 SE6       29.99S
RUSH CITY      CLOUDY    46  33  60 SE9       30.02F
MOOSE LAKE     CLOUDY    46  30  53 S7        30.00F
HINCKLEY       CLOUDY    43  36  75 S7        30.02F
CLOQUET        CLOUDY    43  30  61 E5        30.02S
MCGREGOR       CLOUDY    50  36  57 S17G25    29.98F
$$
MNZ071>073-080-081-089-090-097-098-192000-
   Southwest Minnesota

CITY           SKY/WX    TMP DP  RH WIND       PRES   REMARKS
MONTEVIDEO     CLOUDY    61  46  59 NW6       29.98R
GRANITE FALLS  CLOUDY    62  47  59 W10       30.00R
CANBY          CLOUDY    60  43  53 W8        30.00R
MARSHALL       CLOUDY    66  46  48 NW12      29.97R
REDWOOD FALLS  PTSUNNY   71  46  40 SW18      29.96R
OLIVIA         CLOUDY    64  48  55 W18       29.97R
PIPESTONE      MOSUNNY   64  43  45 NW13      29.98R
WINDOM         MOSUNNY   72  45  37 S23G29    29.97S
WORTHINGTON    MOSUNNY   72  45  37 SW22      30.00S
JACKSON        MOSUNNY   72  43  35 SW22G29   29.99F
TRACY          PTSUNNY   70  45  41 W9        29.97S
SLAYTON        MOSUNNY   69  42  37 SW12G22   29.98S
$$
MNZ065>067-074>077-082>085-091>093-192000-
   South Central Minnesota

CITY           SKY/WX    TMP DP  RH WIND       PRES   REMARKS
MANKATO        CLOUDY    70  43  37 S24       30.00F
NEW ULM        MOSUNNY   72  46  40 SW25G31   29.94F
ST JAMES       MOSUNNY   73  45  35 S20G30    29.97F
FAIRMONT       CLOUDY    73  43  33 SW24G31   30.00S
GLENCOE        PTSUNNY   69  42  37 S16G26    29.96F
FARIBAULT      MOSUNNY   68  39  34 S18G24    30.04F
OWATONNA       PTSUNNY   64  43  45 S18G28    30.05R
WASECA         MOSUNNY   68  46  45 S26       30.05S
ALBERT LEA     MOSUNNY   66  43  42 S17G28    30.04F
$$
MNZ078>079-086>088-094>096-192000-
   Southeast Minnesota

CITY           SKY/WX    TMP DP  RH WIND       PRES   REMARKS
ROCHESTER      CLOUDY    62  40  44 S25G33    30.09F
RED WING       CLOUDY    63  37  39 S14G20    30.05F
STANTON        CLOUDY    63  42  46 S15       30.03S
DODGE CENTER   PTSUNNY   63  37  39 S24G32    30.06F
WINONA           N/A    N/A N/A N/A MISG        N/A
AUSTIN         PTSUNNY   64  36  34 S17G24    30.06F
PRESTON        MOSUNNY   65  38  38 S21G28    30.11F
$$
ABBREVIATIONS USED IN REMARKS
   TC - TEMPERATURES IN CELSIUS
  WCI - WIND CHILL INDEX
   HX - HEAT INDEX
  VSB - VISIBILITY
$$


USA.gov is the U.S. government's official web portal to all federal, state and local government web resources and services.